Home   Weather   Santa Clara   Past weeks

Flag for USA Past Weather in Santa Clara, California, USA — Yesterday and Last 2 Weeks

Now
70 °F

Sunny.


Feels Like: 77 °F
Forecast: 53 / 69 °F
Wind: 15 mph from Northwest

Location: San Jose International Airport

Current Time: Oct 1, 2016 at 1:42:38 PM

Latest Report: Oct 1, 2016 at 12:53 PM


Visibility: 10 mi

Pressure: 30.11 "Hg

Humidity: 38%

Dew Point: 43 °F

Location of Santa ClaraLocation

Past Weather in Santa Clara — Graph

°F

Santa Clara Temperature Yesterday

Maximum temperature yesterday: 69 °F (at 2:53 PM)
Minimum temperature yesterday: 56 °F (at 4:53 AM)
Average temperature yesterday: 61 °F

High & Low Weather Summary for the Past Weeks

 TemperatureHumidityPressure
High98 °F (Sep 26, 2:53 PM)87% (Sep 17, 6:53 AM)30.16 "Hg (Sep 17, 6:53 AM)
Low53 °F (Sep 23, 6:53 AM)11% (Sep 27, 2:53 PM)29.80 "Hg (Sep 27, 5:53 PM)
Average70 °F54%29.99 "Hg
* Reported Sep 16 11:53 AM — Oct 1 11:53 AM, Santa Clara, Weather by CustomWeather, © 2016

Note: Actual official high and low records may vary slightly from our data, if they occured in-between our weather recording intervals... More about our weather records

Advertising

Santa Clara Weather History for the Previous 24 Hours

Scroll right to see more
 ConditionsComfort  
Time TempWeatherWind HumidityBarometerVisibility
11:53 AM
Sat, Oct 1
69 °FSunny.14 mph39%30.13 "Hg10 mi
10:53 AM66 °FSunny.12 mph47%30.14 "Hg10 mi
9:53 AM61 °FPassing clouds.No wind67%30.15 "Hg10 mi
8:53 AM58 °FPassing clouds.No wind72%30.15 "Hg10 mi
7:53 AM53 °FScattered clouds.No wind77%30.15 "Hg10 mi
6:53 AM53 °FPassing clouds.No wind77%30.14 "Hg10 mi
5:53 AM54 °FPassing clouds.3 mph74%30.13 "Hg10 mi
4:53 AM54 °FPassing clouds.No wind74%30.12 "Hg10 mi
3:53 AM55 °FPassing clouds.5 mph74%30.13 "Hg10 mi
3:04 AM57 °FPassing clouds.3 mph74%30.14 "Hg10 mi
1:53 AM58 °FPassing clouds.6 mph75%30.13 "Hg10 mi
12:53 AM57 °FClear.7 mph74%30.13 "Hg10 mi
11:53 PM
Fri, Sep 30
58 °FPassing clouds.6 mph72%30.12 "Hg10 mi
10:53 PM59 °FPassing clouds.6 mph72%30.12 "Hg10 mi
9:53 PM60 °FPassing clouds.9 mph69%30.11 "Hg10 mi
8:53 PM60 °FPassing clouds.10 mph67%30.09 "Hg10 mi
7:53 PM61 °FPassing clouds.8 mph58%30.09 "Hg10 mi
6:53 PM63 °FPassing clouds.13 mph54%30.09 "Hg9 mi
5:53 PM66 °FScattered clouds.20 mph47%30.09 "Hg10 mi
4:53 PM67 °FPassing clouds.18 mph42%30.08 "Hg10 mi
3:53 PM69 °FPassing clouds.21 mph39%30.09 "Hg10 mi
2:53 PM69 °FPassing clouds.17 mph36%30.09 "Hg10 mi
1:53 PM68 °FPassing clouds.14 mph44%30.11 "Hg10 mi
Weather by CustomWeather, © 2016

See weather overviewHow to use our weather pages